This demonstration page uses our WeatherBlox Daily Observations layout. Learn more.

Left ArrowRight Arrow

47.50024, -111.30081

Hourly Observations for May 6, 2021

Temp ( °F °C ) Dew Point ( °F °C ) Humidity (%) Winds ( mph kmh ) Pressure ( in mb ) Visibility ( mi km ) Precip ( " mm )
12:53 am 00:53 Clear 45 7.2 31 -0.6 58 58 SSE 8 13 30.28 1026 10 16 0.00 0.00
1:53 am 01:53 Clear 45 7.2 31 -0.6 58 58 E 6 9 30.27 1025 10 16 0.00 0.00
2:53 am 02:53 Clear 43 6.1 31 -0.6 63 63 ESE 5 7 30.26 1025 10 16 0.00 0.00
3:53 am 03:53 Clear 39 3.9 30 -1.1 70 70 E 3 6 30.26 1025 10 16 0.00 0.00
4:53 am 04:53 Clear 39 3.9 32 0 76 76 ESE 3 6 30.26 1025 10 16 0.00 0.00
5:53 am 05:53 Clear 38 3.3 30 -1.1 73 73 SSE 5 7 30.25 1024 10 16 0.00 0.00
6:53 am 06:53 Sunny 42 5.6 33 0.6 71 71 S 6 9 30.24 1024 10 16 0.00 0.00
7:53 am 07:53 Sunny 48 8.9 33 0.6 56 56 S 5 7 30.22 1023 10 16 0.00 0.00
8:53 am 08:53 Sunny 51 10.6 33 0.6 50 50 VRB 3 6 30.22 1024 10 16 0.00 0.00
9:53 am 09:53 Sunny 54 12.2 33 0.6 45 45 Calm 30.21 1023 10 16 0.00 0.00
10:53 am 10:53 Sunny 57 13.9 33 0.6 41 41 SE 5 7 30.19 1022 10 16 0.00 0.00
11:53 am 11:53 Sunny 60 15.6 35 1.7 39 39 E 7 11 30.15 1021 10 16 0.00 0.00
12:53 pm 12:53 Sunny 63 17.2 34 1.1 34 34 ENE 5 7 30.12 1020 10 16 0.00 0.00
1:53 pm 13:53 Sunny 67 19.4 35 1.7 31 31 ENE 8 13 30.07 1018 10 16 0.00 0.00
2:53 pm 14:53 Sunny 69 20.6 34 1.1 27 27 ESE 5 7 30.05 1018 10 16 0.00 0.00
3:53 pm 15:53 Sunny 71 21.7 33 0.6 25 25 E 13 20 30.02 1017 10 16 0.00 0.00
4:53 pm 16:53 Sunny 72 22.2 34 1.1 25 25 E 10 17 29.98 1015 10 16 0.00 0.00
5:53 pm 17:53 Sunny 71 21.7 34 1.1 26 26 E 14 22 29.96 1015 10 16 0.00 0.00
6:53 pm 18:53 Sunny 70 21.1 34 1.1 27 27 E 16 26 29.94 1014 10 16 0.00 0.00
7:53 pm 19:53 Sunny 66 18.9 35 1.7 32 32 E 14 22 29.91 1013 10 16 0.00 0.00
8:53 pm 20:53 Clear 61 16.1 34 1.1 36 36 E 16 26 29.90 1013 10 16 0.00 0.00
9:53 pm 21:53 Clear 59 15 35 1.7 41 41 E 15 24 29.91 1013 10 16 0.00 0.00
10:53 pm 22:53 Clear 57 13.9 35 1.7 44 44 ESE 9 15 29.88 1012 10 16 0.00 0.00
11:53 pm 23:53 Clear 53 11.7 36 2.2 52 52 ESE 6 9 29.88 1012 10 16 0.00 0.00

Powered by AerisWeather